Location: Newark
(33.9035°S, 18.4112°E)
Time: 16:46:24
(UTC+00:00)

STARLINK-1102 - Pass Details

Date: 21 January 2020
Orbit: 533 x 535 km, 53.0° (Epoch: 18 February)

Event Time Altitude Azimuth Distance (km) Brightness Sun altitude
Rises 12:48:27 0° 270° (W) 2,650 7.5 61.8°
Enters shadow 13:19:02 -49° 34° (NE) 10,004 9.5 55.8°
Exits shadow 13:54:35 -56° 190° (S) 10,912 9.8 48.6°
